Home   Weather   Alert   Past weeks
Flag for Canada

Past Weather in Alert, Nunavut, Canada — Yesterday and Last 2 Weeks

Now
-22 °F

Light snow. Overcast.


Feels Like: -49 °F
Forecast: -21 / -25 °F
Wind: 17 mph from North

Location: Alert Airport

Current Time: Mar 26, 2019 at 12:31:14 pm

Latest Report: Mar 26, 2019 at 12:00 pm


Visibility: 1 mi

Pressure: 29.57 "Hg

Humidity: 75%

Dew Point: -27 °F

Location of AlertLocation

Past Weather in Alert — Graph

°F

Alert Temperature Yesterday

Maximum temperature yesterday: -24 °F (at 9:00 am)
Minimum temperature yesterday: -27 °F (at 8:00 am)
Average temperature yesterday: -25 °F

High & Low Weather Summary for the Past Weeks

 TemperatureHumidityPressure
High-9 °F (Mar 12, 4:00 pm)84% (Mar 12, 7:00 pm)30.01 "Hg (Mar 12, 7:00 pm)
Low-33 °F (Mar 15, 10:00 am)53% (Mar 12, 4:00 pm)29.49 "Hg (Mar 13, 12:00 pm)
Average-23 °F73%29.79 "Hg
* Reported Mar 11 11:00 am — Mar 26 11:36 am, Alert. Weather by CustomWeather, © 2019

Note: Actual official high and low records may vary slightly from our data, if they occured in-between our weather recording intervals... More about our weather records

Advertising

Alert Weather History for the Previous 24 Hours

Scroll right to see more
 ConditionsComfort  
Time TempWeatherWind HumidityBarometerVisibility
11:36 am
Tue, Mar 26
-22 °FLight snow. Partly sunny.14 mph75%29.57 "Hg1 mi
11:00 am-22 °FLight snow. Partly sunny.15 mph68%29.59 "Hg4 mi
10:37 am-24 °FPartly sunny.9 mph75%29.58 "Hg7 mi
10:00 am-24 °FLight snow. Mostly cloudy.12 mph75%29.58 "Hg1 mi
9:00 am-24 °FLight snow. Broken clouds.14 mph75%29.57 "Hg1 mi
8:00 am-24 °FLight snow. Broken clouds.13 mph75%29.57 "Hg3 mi
7:00 am-26 °FLight snow. Partly sunny.12 mph75%29.57 "Hg5 mi
6:00 am-24 °FLight snow. Low clouds.12 mph75%29.57 "Hg2 mi
5:00 am-24 °FLight snow. Low clouds.8 mph75%29.56 "Hg3 mi
4:00 am-24 °FLight snow. Low clouds.8 mph75%29.57 "Hg2 mi
3:00 am-24 °FLight snow. Overcast.5 mph75%29.58 "Hg3 mi
5:00 pm
Mon, Mar 25
-27 °FLight snow. Scattered clouds.6 mph74%29.73 "Hg5 mi
4:00 pm-26 °FLight snow. Partly sunny.3 mph75%29.76 "Hg2 mi
3:00 pm-24 °FLight snow. Low clouds.6 mph75%29.77 "Hg2 mi
2:00 pm-24 °FLight snow. More clouds than sun.2 mph75%29.81 "Hg1 mi
1:00 pm-24 °FSnow flurries. More clouds than sun.5 mph75%29.82 "Hg1 mi
12:39 pm-24 °FLight snow. Broken clouds.5 mph75%29.84 "Hg1 mi
12:00 pm-24 °FSnow flurries. Partly sunny.5 mph75%29.86 "Hg3 mi
Weather by CustomWeather, © 2019

See weather overview